{"data":{"norad_id":48128,"intl_designator":"2021-027AN","name":"STARLINK-2469","alt_names":[],"object_type":"PAYLOAD","status":"ACTIVE","operator":null,"country":"US","launch_date":"2021-04-07","launch_site_code":"AFETR","launch_vehicle":null,"mission":null,"orbit_class":"UNKNOWN","rcs_meters":null,"size_class":null,"mass_kg":null,"dimensions":null,"purposes":["comms"],"wikipedia_slug":null,"has_3d_model":false,"image_url":null,"decayed_at":null,"tle_current":{"epoch":"2026-05-25T04:31:33.933216Z","epoch_age_seconds":56247,"freshness":"FRESH","line1":"1 48128U 21027AN  26145.18858719  .00059021  00000+0  23800-2 0  9991","line2":"2 48128  53.0985 110.0347 0004044  37.3324 322.7954 15.24274962285048","mean_motion":15.24274962,"eccentricity":0.0004044,"inclination_deg":53.0985,"raan_deg":110.0347,"arg_perigee_deg":37.3324,"mean_anomaly_deg":322.7954,"bstar":0.00238,"rev_number":28504,"period_min":94.471144373491,"perigee_km":490.18477331249,"apogee_km":495.74211935348,"semimajor_km":6871.100446333,"source":"CELESTRAK","updated_at":"2026-05-25T13:38:16.647566Z"}}}